SL-8 DEB, 1478

Orbit data source: Space-Track

SL-8 DEB, 1478 is space debris in LEO originally from a launch on Mon, 15 Mar 1965 UTC launched from the Tyuratam Missile And Space Complex (TTMTR). Debris objects in space refer to the collection of defunct objects orbiting the Earth. Examples of debris include non-operational satellites, rocket bodies, and fragments generated from explosions, collisions, or faulty payload assembly.

Loading next visibility...
Identifier
1478, 1965-020BC
Orbit
LEO
Country
Flag of CISCIS
Related business
Manufacturer
Unknown
Mission
Spacecraft
Bus & Motor
Unknown
Mass
Unknown
Launch date (UTC)
1965-03-15 (61 years ago)
Launch vehicle
Unknown
Launch site
Tyuratam Missile And Space Complex (TTMTR)
Object type
Payload
Rocket body
Debris
Shape & HBR
Unknown shape, 0.1 m
Radar Cross Section
Medium (>0.1 m² and <1 m²)

Expand to show TLE details & history
Last TLE update: 2 days ago

TLE from 2 days ago
0 SL-8 DEB
1  1478U 65020BC  25306.32872147  .00004494  00000-0  21503-2 0  9997
2  1478  56.0826  11.4524 0593098 223.3248 131.9609 13.54624045894110
Epoch: 2025-11-02T07:53Z
TLE epoch observation values (Epoch: 2025-11-02T07:53:21.535Z)
Latitude
0.00001°
Longitude
-148.73334°
Altitude
1,364.808 km
Speed
7.027 km/s
True Right ascension
00h 45m 48s
True Declination
0° 00' 00"
Sunlit
Object was in full shadow at epoch
Visualization orbit readout
Latitude
Unknown
Longitude
Unknown
Altitude
Unknown
Speed
Unknown
Apparent Right ascension
Unknown
Apparent Declination
Unknown
Sunlit
N/A
Visualization observer readout
Local Sidereal Time
00:30:57
Azimuth
Unknown
Elevation
Unknown
Doppler factor
Unknown
Orbital elements
Apogee altitude
1,495.966 km
Perigee altitude
614.238 km
Semi-major axis
7,433.239 km
Eccentricity
0.05931
Inclination
56.0826°
RAAN
11.4524°
Arg. of periapsis
223.3248°
True anomaly
136.76999°
Mean anomaly
131.9609°
Eccentric anomaly
134.38927°
Mean motion
3.38669 °/min
Orbital period
106.3 mins
BSTAR
0.0021503
Loading maneuver chart data...
Computing Atmospheric mass density...
Loading historical data...
Loading historical data...
Loading historical data...
Loading historical data...
Loading historical data...
Loading historical data...
Loading historical data...

Documentation

Showing up to 5 results
|